Location: Poughquag
(41.6090°N, 73.6820°W)
Time: 01:29:06
(UTC-04:00)

Vanguard 2 Rocket - Pass Details

Date: 02 June 2020
Orbit: 556 x 3324 km, 32.9° (Epoch: 06 July)

Event Time Altitude Azimuth Distance (km) Brightness Sun altitude
Rises 15:53:15 0° 244° (WSW) 3,595 10.6 47.8°
Reaches altitude 10° 15:55:27 10° 238° (WSW) 2,891 10.4 47.4°
Maximum altitude 16:02:20 48° 166° (SSE) 1,907 9.1 46.1°
Drops below altitude 10° 16:14:21 10° 98° (E) 4,939 10.3 43.9°
Sets 16:19:22 0° 94° (E) 6,376 10.8 43.0°
